KC9EGS Weather Reports


Display with metric or nautical units.
time (UTC)temp
F
wind
direction
speed
MPH
gust
MPH
rain 1hr
in
rain 24hr
in
rain mn
in
humidity
%
barometer
mb
20260503041517 51 208 0.0 5.0 0.00 0.00 0.00 50 1004.8
20260503041011 51 212 0.0 5.0 0.00 0.00 0.00 50 1004.9
20260503040516 51 216 0.0 5.0 0.00 0.00 0.00 50 1004.9
20260503035512 50 217 0.0 0.0 0.00 0.00 0.00 51 1005.1
20260503034516 50 224 1.0 0.0 0.00 0.00 0.00 51 1005.1
20260503034012 49 251 0.0 0.0 0.00 0.00 0.00 53 1005.6
20260503033517 48 253 0.0 0.0 0.00 0.00 0.00 54 1005.6
20260503032511 48 254 0.0 0.0 0.00 0.00 0.00 58 1005.8
20260503031516 48 254 0.0 0.0 0.00 0.00 0.00 58 1005.8
20260503031011 48 254 0.0 0.0 0.00 0.00 0.00 56 1006.0
20260503030518 48 254 0.0 0.0 0.00 0.00 0.00 57 1006.0
20260503025512 48 254 0.0 0.0 0.00 0.00 0.00 57 1006.2
20260503024516 49 254 0.0 0.0 0.00 0.00 0.00 56 1006.2
20260503024011 49 254 0.0 0.0 0.00 0.00 0.00 55 1006.2
20260503023517 49 254 0.0 0.0 0.00 0.00 0.00 54 1006.2
20260503022513 50 254 0.0 0.0 0.00 0.00 0.00 50 1006.3
20260503021517 51 254 0.0 0.0 0.00 0.00 0.00 49 1006.3
20260503021012 52 254 0.0 0.0 0.00 0.00 0.00 47 1006.6
20260503020518 52 254 0.0 0.0 0.00 0.00 0.00 47 1006.6
20260503015512 53 254 0.0 10.0 0.00 0.00 0.00 47 1006.5
20260503014517 54 254 0.0 10.0 0.00 0.00 0.00 45 1006.5
20260503014012 54 254 0.0 10.0 0.00 0.00 0.00 45 1006.5
20260503013517 54 254 0.0 10.0 0.00 0.00 0.00 45 1006.5
20260503012511 55 254 0.0 10.0 0.00 0.00 0.00 42 1006.6
20260503011516 55 254 0.0 10.0 0.00 0.00 0.00 40 1006.6
20260503011011 55 254 0.0 10.0 0.00 0.00 0.00 36 1006.9
20260503010516 55 254 0.0 10.0 0.00 0.00 0.00 36 1006.9
20260503005512 55 254 0.0 11.0 0.00 0.00 0.00 36 1006.9
20260503004518 56 246 2.0 11.0 0.00 0.00 0.00 35 1006.9
20260503004012 56 247 2.0 11.0 0.00 0.00 0.00 35 1007.0
20260503003517 56 250 5.0 11.0 0.00 0.00 0.00 34 1007.0
20260503002511 56 236 0.0 11.0 0.00 0.00 0.00 35 1007.1
20260503001517 56 256 0.0 11.0 0.00 0.00 0.00 34 1007.1
20260503001012 56 219 0.0 11.0 0.00 0.00 0.00 32 1007.5
20260503000517 56 236 5.0 11.0 0.00 0.00 0.00 32 1007.5
20260502235510 57 244 0.0 12.0 0.00 0.00 0.00 32 1007.6
20260502234516 57 251 1.0 12.0 0.00 0.00 0.00 31 1007.6
20260502234012 57 254 0.0 12.0 0.00 0.00 0.00 30 1007.6
20260502233516 58 253 0.0 12.0 0.00 0.00 0.00 30 1007.6
20260502232511 58 251 0.0 12.0 0.00 0.00 0.00 30 1007.7
20260502231518 58 246 2.0 12.0 0.00 0.00 0.00 27 1007.7
20260502231011 58 260 1.0 12.0 0.00 0.00 0.00 27 1007.8
20260502230516 58 253 3.0 12.0 0.00 0.00 0.00 27 1007.8
20260502225511 58 257 2.0 12.0 0.00 0.00 0.00 28 1007.9
20260502224517 58 246 0.0 12.0 0.00 0.00 0.00 28 1007.9
20260502224011 58 240 3.0 12.0 0.00 0.00 0.00 28 1007.9
20260502222511 58 244 3.0 12.0 0.00 0.00 0.00 28 1007.9
20260502221516 59 247 3.0 12.0 0.00 0.00 0.00 27 1007.9
20260502221011 58 241 7.0 12.0 0.00 0.00 0.00 27 1008.0
20260502215511 59 261 0.0 12.0 0.00 0.00 0.00 27 1008.1
20260502214516 59 253 11.0 12.0 0.00 0.00 0.00 27 1008.1
20260502214010 59 213 6.0 12.0 0.00 0.00 0.00 28 1008.2
20260502213519 60 244 3.0 12.0 0.00 0.00 0.00 26 1008.2
20260502212512 59 247 6.0 12.0 0.00 0.00 0.00 27 1008.4
20260502211516 59 253 6.0 12.0 0.00 0.00 0.00 25 1008.4
20260502211010 59 215 0.0 12.0 0.00 0.00 0.00 28 1008.4
20260502210516 59 188 0.0 12.0 0.00 0.00 0.00 29 1008.4
20260502205511 58 274 0.0 11.0 0.00 0.00 0.00 26 1008.8
20260502204516 58 251 7.0 11.0 0.00 0.00 0.00 26 1008.8
20260502204011 58 247 0.0 11.0 0.00 0.00 0.00 26 1008.9
20260502203518 58 247 0.0 11.0 0.00 0.00 0.00 26 1008.9
20260502202510 58 184 0.0 11.0 0.00 0.00 0.00 26 1009.3
20260502201516 58 240 0.0 11.0 0.00 0.00 0.00 26 1009.3
20260502201010 59 254 5.0 11.0 0.00 0.00 0.00 26 1009.4
20260502200515 59 241 3.0 11.0 0.00 0.00 0.00 27 1009.4
20260502195510 59 192 4.0 14.0 0.00 0.00 0.00 27 1009.8
20260502194516 58 227 10.0 14.0 0.00 0.00 0.00 27 1009.8
20260502194011 57 306 5.0 14.0 0.00 0.00 0.00 27 1010.0
20260502193517 57 350 5.0 14.0 0.00 0.00 0.00 26 1010.0
20260502192510 57 176 0.0 14.0 0.00 0.00 0.00 28 1010.3
20260502191516 57 234 0.0 14.0 0.00 0.00 0.00 27 1010.3
20260502191011 57 271 0.0 14.0 0.00 0.00 0.00 27 1010.4
20260502190516 57 264 10.0 14.0 0.00 0.00 0.00 27 1010.4
20260502185511 57 241 0.0 14.0 0.00 0.00 0.00 27 1010.6
20260502184517 57 246 3.0 14.0 0.00 0.00 0.00 28 1010.6
20260502184012 57 291 2.0 14.0 0.00 0.00 0.00 28 1010.8
20260502183517 57 220 6.0 14.0 0.00 0.00 0.00 28 1010.8
20260502182512 56 226 0.0 14.0 0.00 0.00 0.00 30 1011.1
20260502181516 56 253 0.0 14.0 0.00 0.00 0.00 29 1011.1
20260502181011 55 342 0.0 14.0 0.00 0.00 0.00 29 1011.2
20260502180516 55 241 0.0 14.0 0.00 0.00 0.00 31 1011.2
20260502170516 53 240 5.0 14.0 0.00 0.00 0.00 36 1012.1
20260502164010 52 253 0.0 8.0 0.00 0.00 0.00 33 1012.4
20260502163516 52 330 0.0 8.0 0.00 0.00 0.00 33 1012.4
20260502162510 52 309 0.0 8.0 0.00 0.00 0.00 33 1012.8
20260502161516 51 247 1.0 8.0 0.00 0.00 0.00 35 1012.8
20260502161010 51 292 4.0 8.0 0.00 0.00 0.00 33 1012.8
20260502160516 51 260 0.0 8.0 0.00 0.00 0.00 35 1012.8
20260502151517 49 191 0.0 7.0 0.00 0.00 0.00 42 1013.5
20260502151011 49 250 0.0 7.0 0.00 0.00 0.00 38 1013.4
20260502150515 48 263 5.0 7.0 0.00 0.00 0.00 39 1013.4
20260502130515 34 0 0.0 0.0 0.00 0.00 0.00 72 1014.8
20260502123518 29 0 0.0 0.0 0.00 0.00 0.00 90 1015.1
20260502122509 28 0 0.0 0.0 0.00 0.00 0.00 92 1015.2
20260502121516 27 0 0.0 0.0 0.00 0.00 0.00 92 1015.2
20260502121009 26 0 0.0 0.0 0.00 0.00 0.00 92 1015.1
20260502115512 25 0 0.0 0.0 0.00 0.00 0.00 91 1015.2
20260502114515 24 0 0.0 0.0 0.00 0.00 0.00 90 1015.2
20260502114010 24 0 0.0 0.0 0.00 0.00 0.00 90 1015.2
20260502113514 24 0 0.0 0.0 0.00 0.00 0.00 90 1015.2
20260502112511 24 0 0.0 0.0 0.00 0.00 0.00 89 1015.2
20260502111517 24 0 0.0 0.0 0.00 0.00 0.00 89 1015.2
20260502111010 24 0 0.0 0.0 0.00 0.00 0.00 89 1015.1
20260502110516 23 0 0.0 0.0 0.00 0.00 0.00 89 1015.1
20260502105509 23 0 0.0 0.0 0.00 0.00 0.00 88 1015.2
20260502104516 24 0 0.0 0.0 0.00 0.00 0.00 88 1015.2
20260502104011 24 0 0.0 0.0 0.00 0.00 0.00 88 1015.1
20260502103517 24 0 0.0 0.0 0.00 0.00 0.00 88 1015.1
20260502102511 24 0 0.0 0.0 0.00 0.00 0.00 88 1015.2
20260502101515 24 0 0.0 0.0 0.00 0.00 0.00 88 1015.2
20260502101011 24 0 0.0 0.0 0.00 0.00 0.00 88 1015.2
20260502100516 24 0 0.0 0.0 0.00 0.00 0.00 88 1015.2
20260502091516 24 0 0.0 0.0 0.00 0.00 0.00 87 1015.2
20260502091010 24 0 0.0 0.0 0.00 0.00 0.00 87 1015.2
20260502090515 24 0 0.0 0.0 0.00 0.00 0.00 87 1015.2
20260502071514 26 0 0.0 0.0 0.00 0.00 0.00 83 1015.2
20260502071010 26 0 0.0 0.0 0.00 0.00 0.00 83 1015.4
20260502070515 26 0 0.0 0.0 0.00 0.00 0.00 82 1015.4
20260502065509 26 0 0.0 0.0 0.00 0.00 0.00 81 1015.4
20260502064514 26 0 0.0 0.0 0.00 0.00 0.00 81 1015.4
20260502064010 26 0 0.0 0.0 0.00 0.00 0.00 80 1015.6
20260502063515 26 0 0.0 0.0 0.00 0.00 0.00 79 1015.6
20260502062511 27 0 0.0 0.0 0.00 0.00 0.00 79 1015.6
20260502061514 27 0 0.0 0.0 0.00 0.00 0.00 78 1015.6
20260502061010 27 0 0.0 0.0 0.00 0.00 0.00 78 1015.7
20260502060515 27 0 0.0 0.0 0.00 0.00 0.00 78 1015.7
20260502055511 27 0 0.0 0.0 0.00 0.00 0.00 77 1015.8
20260502054517 27 0 0.0 0.0 0.00 0.00 0.00 76 1015.8
20260502054009 27 0 0.0 0.0 0.00 0.00 0.00 76 1015.7
20260502053515 27 0 0.0 0.0 0.00 0.00 0.00 75 1015.7
20260502052509 27 0 0.0 0.0 0.00 0.00 0.00 74 1015.7
20260502051514 28 0 0.0 0.0 0.00 0.00 0.00 73 1015.7
20260502051009 28 0 0.0 0.0 0.00 0.00 0.00 73 1015.7
20260502050515 28 0 0.0 0.0 0.00 0.00 0.00 72 1015.7
20260502045509 28 0 0.0 0.0 0.00 0.00 0.00 71 1015.7
20260502044516 28 0 0.0 0.0 0.00 0.00 0.00 70 1015.7
20260502044010 28 0 0.0 0.0 0.00 0.00 0.00 69 1015.6
20260502043515 28 0 0.0 0.0 0.00 0.00 0.00 68 1015.6
20260502042510 29 0 0.0 0.0 0.00 0.00 0.00 67 1015.6